#timestamp,LO_Frequency 
1428962415.9,286047002.7
1428962435.8,286047024.1
1428962455.7,286047009.8
1428962475.7,286046997.5
1428962495.6,286047004.7
1428962515.5,286047006.0
1428962535.4,286047005.7
1428962555.4,286047000.4
1428962575.3,286047000.4
1428962615.2,286047019.7
1428962635.1,288842004.4
1428962655.1,288842001.2
1428962656.0,288842001.2
1428962675.9,288841986.1
1428962695.8,288841993.2
1428962715.8,288842022.5
1428962735.7,288842002.7
1428962755.6,288842013.8
1428962775.5,288841977.4
1428962795.5,288842003.3
1428962815.4,288842000.0
1428962835.3,288842001.5
1428962855.2,288841974.7
1428962875.2,288841983.1
1428962895.1,288841960.6
1428962896.0,288841960.6
1428962915.0,288842020.8
1428962915.9,288842020.8
1428962935.9,288841969.9
1428962955.8,288841998.1
1428962975.7,288841998.1
1428962995.6,288841999.6
1428963015.6,288841996.0
1428963035.5,288842016.4
1428963055.4,288841999.3
1428963075.3,288841998.2
1428963095.3,288842008.0
1428963115.2,288841988.2
1428963175.7,288842026.7
1428963195.6,288840007.4
1428963215.5,288840038.3
1428963235.5,288840004.0
1428963255.4,288840012.8
1428963275.3,288839993.3
                         